Location: Cran-Gévrier
(45.9039°N, 6.1012°E)
Time: 22:30:14
(UTC+00:00)

PCSat - Visible Passes

Search period start: 29 April 2025 00:00
Search period end: 09 May 2025 00:00
Orbit: 782 x 790 km, 67.1° (Epoch: 28 April)

Date Brightness Start Highest point End Pass type
(mag) Time Alt. Az. Time Alt. Az. Time Alt. Az.
29 Apr 9.7 02:08:20 35° S 02:10:31 66° ESE 02:15:53 10° NE visible
29 Apr 11.0 03:49:48 10° W 03:54:17 26° NW 03:58:47 10° NNE visible
30 Apr 10.1 01:37:04 39° SSE 01:38:27 47° ESE 01:43:37 10° NE visible
30 Apr 10.6 03:17:42 13° WSW 03:21:56 33° NW 03:26:48 10° NNE visible
01 May 10.5 01:05:46 33° SE 01:06:26 34° ESE 01:11:16 10° NE visible
01 May 10.3 02:46:24 21° WSW 02:49:38 42° NW 02:54:47 10° NNE visible
02 May 11.0 00:34:26 25° ESE 00:34:27 25° ESE 00:38:47 10° NE visible
02 May 9.9 02:15:03 32° WSW 02:17:24 56° NW 02:22:43 10° NNE visible
03 May 11.5 00:03:03 18° E 00:03:03 18° E 00:06:03 10° ENE visible
03 May 9.5 01:43:40 48° SW 01:45:11 75° WNW 01:50:38 10° NNE visible
03 May 11.5 03:25:48 10° WNW 03:29:26 18° NW 03:33:06 10° N visible
03 May 11.9 23:31:38 12° E 23:31:38 12° E 23:32:48 10° ENE visible
04 May 9.4 01:12:15 65° SSW 01:13:02 82° ESE 01:18:28 10° NE visible
04 May 11.3 02:52:52 10° W 02:57:01 22° NW 03:01:11 10° NNE visible
05 May 9.7 00:40:47 60° SE 00:40:56 60° ESE 00:46:16 10° NE visible
05 May 11.0 02:21:24 16° W 02:24:37 27° NW 02:29:14 10° NNE visible
06 May 10.2 00:09:17 43° E 00:09:17 43° E 00:13:58 10° NE visible
06 May 10.6 01:49:54 24° W 01:52:17 35° NW 01:57:14 10° NNE visible
06 May 12.0 03:35:55 10° NW 03:37:18 11° NNW 03:38:40 10° N visible
06 May 10.8 23:37:45 30° E 23:37:45 30° E 23:41:34 10° NE visible
07 May 10.2 01:18:21 35° W 01:19:59 45° NW 01:25:12 10° NNE visible
07 May 11.9 03:02:17 10° NW 03:04:44 13° NNW 03:07:10 10° N visible
07 May 11.2 23:06:10 21° E 23:06:10 21° E 23:09:01 10° ENE visible
08 May 9.8 00:46:46 51° W 00:47:45 60° NW 00:53:07 10° NNE visible
08 May 11.8 02:29:01 10° WNW 02:32:12 16° NNW 02:35:24 10° N visible
08 May 11.6 22:34:33 14° E 22:34:33 14° E 22:36:12 10° ENE visible
